Time,TemperatureF,DewpointF,PressureIn,WindDirection,WindDirectionDegrees,WindSpeedMPH,WindSpeedGustMPH,Humidity,HourlyPrecipIn,Conditions,Clouds,dailyrainin,SoftwareType,DateUTC
2013-10-18 00:05:00,77.5,-99.9,29.86,South,173,0.0,0.0,0,0.00,,,0.00,Wunderground v.1.15,2013-10-18 04:05:00,
2013-10-18 00:09:00,77.4,-99.9,29.85,South,174,5.0,-999.0,0,-99.99,,,0.00,weatherlink.com 1.10,2013-10-18 04:09:00,
2013-10-18 00:15:00,77.4,-99.9,29.85,South,173,4.0,7.0,0,0.00,,,0.00,Wunderground v.1.15,2013-10-18 04:15:00,
2013-10-18 00:20:00,77.4,-99.9,29.85,SSE,164,6.0,6.0,0,0.00,,,0.00,Wunderground v.1.15,2013-10-18 04:20:00,
2013-10-18 00:25:00,77.6,-99.9,29.86,SSE,165,4.0,6.0,0,0.00,,,0.00,Wunderground v.1.15,2013-10-18 04:25:00,
2013-10-18 00:30:00,77.8,-99.9,29.86,SSE,165,1.0,1.0,0,0.00,,,0.00,Wunderground v.1.15,2013-10-18 04:30:00,
2013-10-18 00:35:00,77.8,-99.9,29.86,SSE,164,0.0,1.0,0,0.00,,,0.00,Wunderground v.1.15,2013-10-18 04:35:00,
2013-10-18 00:45:00,77.7,-99.9,29.86,SSE,165,0.0,0.0,0,0.00,,,0.00,Wunderground v.1.15,2013-10-18 04:45:00,
2013-10-18 00:50:00,77.7,-99.9,29.86,SSE,165,0.0,0.0,0,0.00,,,0.00,Wunderground v.1.15,2013-10-18 04:50:00,
2013-10-18 01:00:00,77.9,-99.9,29.86,SSE,164,0.0,0.0,0,0.00,,,0.00,Wunderground v.1.15,2013-10-18 05:00:00,
2013-10-18 01:10:00,77.9,-99.9,29.85,SSE,164,0.0,0.0,0,0.00,,,0.00,Wunderground v.1.15,2013-10-18 05:10:00,
2013-10-18 01:15:00,77.7,-99.9,29.85,SSE,164,0.0,0.0,0,0.00,,,0.00,Wunderground v.1.15,2013-10-18 05:15:00,
2013-10-18 01:25:00,77.2,-99.9,29.84,SSE,165,0.0,0.0,0,0.00,,,0.00,Wunderground v.1.15,2013-10-18 05:25:00,
2013-10-18 01:30:00,77.1,-99.9,29.84,SSE,165,0.0,0.0,0,0.00,,,0.00,Wunderground v.1.15,2013-10-18 05:30:00,
2013-10-18 01:40:00,77.1,-99.9,29.85,SSE,164,0.0,0.0,0,0.00,,,0.00,Wunderground v.1.15,2013-10-18 05:40:00,
2013-10-18 01:45:00,77.0,-99.9,29.85,SSE,164,0.0,0.0,0,0.00,,,0.00,Wunderground v.1.15,2013-10-18 05:45:00,
2013-10-18 01:50:00,76.9,-99.9,29.84,SSE,164,0.0,0.0,0,0.00,,,0.00,Wunderground v.1.15,2013-10-18 05:50:00,
2013-10-18 01:56:00,77.0,-99.9,29.84,SSE,165,0.0,-999.0,0,-99.99,,,0.00,weatherlink.com 1.10,2013-10-18 05:56:00,
2013-10-18 02:05:00,77.0,-99.9,29.83,SSE,165,0.0,0.0,0,0.00,,,0.00,Wunderground v.1.15,2013-10-18 06:05:00,
2013-10-18 02:10:00,77.1,-99.9,29.83,SSE,165,0.0,0.0,0,0.00,,,0.00,Wunderground v.1.15,2013-10-18 06:10:00,
2013-10-18 02:20:00,77.4,-99.9,29.83,SSE,163,2.0,3.0,0,0.00,,,0.00,Wunderground v.1.15,2013-10-18 06:20:00,
2013-10-18 02:26:00,77.5,-99.9,29.83,SSE,163,0.0,-999.0,0,-99.99,,,0.00,weatherlink.com 1.10,2013-10-18 06:26:00,
2013-10-18 02:35:00,77.8,-99.9,29.84,SSW,199,1.0,5.0,0,0.00,,,0.00,Wunderground v.1.15,2013-10-18 06:35:00,
2013-10-18 02:40:00,77.8,-99.9,29.83,SSW,200,1.0,1.0,0,0.00,,,0.00,Wunderground v.1.15,2013-10-18 06:40:00,
2013-10-18 02:50:00,77.8,-99.9,29.82,SSW,199,0.0,0.0,0,0.00,,,0.00,Wunderground v.1.15,2013-10-18 06:50:00,
2013-10-18 02:56:00,77.9,-99.9,29.82,SSW,200,0.0,-999.0,0,-99.99,,,0.00,weatherlink.com 1.10,2013-10-18 06:56:00,
2013-10-18 03:05:00,77.7,-99.9,29.82,SSW,200,0.0,0.0,0,0.00,,,0.00,Wunderground v.1.15,2013-10-18 07:05:00,
2013-10-18 03:11:00,77.5,-99.9,29.81,SSW,200,0.0,-999.0,0,-99.99,,,0.00,weatherlink.com 1.10,2013-10-18 07:11:00,
2013-10-18 03:20:00,77.5,-99.9,29.81,SSW,200,0.0,0.0,0,0.00,,,0.00,Wunderground v.1.15,2013-10-18 07:20:00,
2013-10-18 03:26:00,77.5,-99.9,29.82,SSW,199,0.0,-999.0,0,-99.99,,,0.00,weatherlink.com 1.10,2013-10-18 07:26:00,
2013-10-18 03:35:00,77.3,-99.9,29.82,SSW,199,0.0,0.0,0,0.00,,,0.00,Wunderground v.1.15,2013-10-18 07:35:00,
2013-10-18 03:40:00,77.1,-99.9,29.82,SSW,200,0.0,0.0,0,0.00,,,0.00,Wunderground v.1.15,2013-10-18 07:40:00,
2013-10-18 03:45:00,77.0,-99.9,29.82,SSW,196,0.0,2.0,0,0.00,,,0.00,Wunderground v.1.15,2013-10-18 07:45:00,
2013-10-18 03:50:00,76.8,-99.9,29.82,South,171,1.0,1.0,0,0.00,,,0.00,Wunderground v.1.15,2013-10-18 07:50:00,
2013-10-18 03:55:00,76.5,-99.9,29.82,SSE,155,2.0,5.0,0,0.00,,,0.00,Wunderground v.1.15,2013-10-18 07:55:00,
2013-10-18 04:00:00,76.2,-99.9,29.82,SE,142,5.0,13.0,0,0.00,,,0.00,Wunderground v.1.15,2013-10-18 08:00:00,
2013-10-18 04:05:00,76.2,-99.9,29.82,SSE,153,8.0,13.0,0,0.00,,,0.00,Wunderground v.1.15,2013-10-18 08:05:00,
2013-10-18 04:12:00,76.3,-99.9,29.81,SSE,155,0.0,-999.0,0,-99.99,,,0.00,weatherlink.com 1.10,2013-10-18 08:12:00,
2013-10-18 04:20:00,76.4,-99.9,29.82,SSE,158,1.0,1.0,0,0.00,,,0.00,Wunderground v.1.15,2013-10-18 08:20:00,
2013-10-18 04:27:00,76.3,-99.9,29.82,SSE,159,0.0,-999.0,0,-99.99,,,0.00,weatherlink.com 1.10,2013-10-18 08:27:00,
2013-10-18 04:35:00,76.1,-99.9,29.82,SSE,159,0.0,0.0,0,0.00,,,0.00,Wunderground v.1.15,2013-10-18 08:35:00,
2013-10-18 04:42:00,75.9,-99.9,29.82,SSE,158,6.0,-999.0,0,-99.99,,,0.00,weatherlink.com 1.10,2013-10-18 08:42:00,
2013-10-18 04:50:00,76.1,-99.9,29.82,SSE,157,6.0,7.0,0,0.00,,,0.00,Wunderground v.1.15,2013-10-18 08:50:00,
2013-10-18 04:57:00,76.4,-99.9,29.82,SSE,160,11.0,-999.0,0,-99.99,,,0.00,weatherlink.com 1.10,2013-10-18 08:57:00,
2013-10-18 05:05:00,76.8,-99.9,29.82,SSE,164,6.0,7.0,0,0.00,,,0.00,Wunderground v.1.15,2013-10-18 09:05:00,
2013-10-18 05:12:00,76.9,-99.9,29.82,SSE,165,0.0,-999.0,0,-99.99,,,0.00,weatherlink.com 1.10,2013-10-18 09:12:00,
2013-10-18 05:20:00,76.9,-99.9,29.82,SSE,164,0.0,5.0,0,0.00,,,0.00,Wunderground v.1.15,2013-10-18 09:20:00,
2013-10-18 05:28:00,76.7,-99.9,29.82,SSE,164,0.0,-999.0,0,-99.99,,,0.00,weatherlink.com 1.10,2013-10-18 09:28:00,
2013-10-18 05:35:00,76.6,-99.9,29.82,SSE,164,0.0,2.0,0,0.00,,,0.00,Wunderground v.1.15,2013-10-18 09:35:00,
2013-10-18 05:40:00,76.6,-99.9,29.82,SSE,165,0.0,0.0,0,0.00,,,0.00,Wunderground v.1.15,2013-10-18 09:40:00,
2013-10-18 05:50:00,76.5,-99.9,29.82,SSE,164,0.0,0.0,0,0.00,,,0.00,Wunderground v.1.15,2013-10-18 09:50:00,
2013-10-18 05:58:00,76.4,-99.9,29.82,SSE,164,0.0,-999.0,0,-99.99,,,0.00,weatherlink.com 1.10,2013-10-18 09:58:00,
2013-10-18 06:05:00,76.4,-99.9,29.82,SSE,165,0.0,0.0,0,0.00,,,0.00,Wunderground v.1.15,2013-10-18 10:05:00,
2013-10-18 06:10:00,76.3,-99.9,29.83,SSE,164,0.0,0.0,0,0.00,,,0.00,Wunderground v.1.15,2013-10-18 10:10:00,
2013-10-18 06:20:00,76.2,-99.9,29.84,SSE,165,0.0,0.0,0,0.00,,,0.00,Wunderground v.1.15,2013-10-18 10:20:00,
2013-10-18 06:25:00,75.9,-99.9,29.84,SSE,165,0.0,0.0,0,0.00,,,0.00,Wunderground v.1.15,2013-10-18 10:25:00,
2013-10-18 06:35:00,75.4,-99.9,29.84,SSE,165,0.0,0.0,0,0.00,,,0.00,Wunderground v.1.15,2013-10-18 10:35:00,
2013-10-18 06:44:00,75.2,-99.9,29.84,SSE,165,0.0,-999.0,0,-99.99,,,0.00,weatherlink.com 1.10,2013-10-18 10:44:00,
2013-10-18 06:50:00,75.2,-99.9,29.84,SSE,164,0.0,0.0,0,0.00,,,0.00,Wunderground v.1.15,2013-10-18 10:50:00,
2013-10-18 06:59:00,75.1,-99.9,29.84,SSE,165,0.0,-999.0,0,-99.99,,,0.00,weatherlink.com 1.10,2013-10-18 10:59:00,
2013-10-18 07:05:00,75.0,-99.9,29.85,SSE,165,1.0,5.0,0,0.00,,,0.00,Wunderground v.1.15,2013-10-18 11:05:00,
2013-10-18 07:10:00,75.0,-99.9,29.85,SSE,165,3.0,7.0,0,0.00,,,0.00,Wunderground v.1.15,2013-10-18 11:10:00,
2013-10-18 07:15:00,75.2,-99.9,29.85,SSE,164,5.0,7.0,0,0.00,,,0.00,Wunderground v.1.15,2013-10-18 11:15:00,
2013-10-18 07:25:00,75.7,-99.9,29.85,SSE,165,1.0,4.0,0,0.00,,,0.00,Wunderground v.1.15,2013-10-18 11:25:00,
2013-10-18 07:30:00,76.0,-99.9,29.85,SSE,164,0.0,0.0,0,0.00,,,0.00,Wunderground v.1.15,2013-10-18 11:30:00,
2013-10-18 07:40:00,76.5,-99.9,29.85,SSE,165,1.0,5.0,0,0.00,,,0.00,Wunderground v.1.15,2013-10-18 11:40:00,
2013-10-18 07:45:00,76.9,-99.9,29.85,SSE,165,2.0,5.0,0,0.00,,,0.00,Wunderground v.1.15,2013-10-18 11:45:00,
2013-10-18 07:50:00,77.4,-99.9,29.85,SSE,165,2.0,6.0,0,0.00,,,0.00,Wunderground v.1.15,2013-10-18 11:50:00,
2013-10-18 07:55:00,77.8,-99.9,29.85,SSE,164,3.0,6.0,0,0.00,,,0.00,Wunderground v.1.15,2013-10-18 11:55:00,
2013-10-18 08:00:00,78.3,-99.9,29.85,SSE,163,4.0,4.0,0,0.00,,,0.00,Wunderground v.1.15,2013-10-18 12:00:00,
2013-10-18 08:05:00,78.8,-99.9,29.85,SSE,163,3.0,5.0,0,0.00,,,0.00,Wunderground v.1.15,2013-10-18 12:05:00,
2013-10-18 08:15:00,79.5,-99.9,29.86,SSE,159,5.0,9.0,0,0.00,,,0.00,Wunderground v.1.15,2013-10-18 12:15:00,
2013-10-18 08:20:00,79.8,-99.9,29.86,SSE,162,4.0,10.0,0,0.00,,,0.00,Wunderground v.1.15,2013-10-18 12:20:00,
2013-10-18 08:30:00,80.1,-99.9,29.87,SSE,164,8.0,8.0,0,0.00,,,0.00,Wunderground v.1.15,2013-10-18 12:30:00,
2013-10-18 08:40:00,80.6,-99.9,29.87,SSE,163,6.0,6.0,0,0.00,,,0.00,Wunderground v.1.15,2013-10-18 12:40:00,
2013-10-18 08:46:00,81.1,-99.9,29.87,South,170,4.0,-999.0,0,-99.99,,,0.00,weatherlink.com 1.10,2013-10-18 12:46:00,
2013-10-18 08:55:00,81.7,-99.9,29.87,South,182,5.0,6.0,0,0.00,,,0.00,Wunderground v.1.15,2013-10-18 12:55:00,
2013-10-18 09:00:00,82.0,-99.9,29.87,South,178,3.0,-999.0,0,-99.99,,,0.00,weatherlink.com 1.10,2013-10-18 13:00:00,
2013-10-18 09:10:00,82.8,-99.9,29.88,South,179,4.0,4.0,0,0.00,,,0.00,Wunderground v.1.15,2013-10-18 13:10:00,
2013-10-18 09:20:00,83.0,-99.9,29.88,SSE,156,6.0,6.0,0,0.00,,,0.00,Wunderground v.1.15,2013-10-18 13:20:00,
2013-10-18 09:30:00,83.1,-99.9,29.88,SSE,151,5.0,5.0,0,0.00,,,0.00,Wunderground v.1.15,2013-10-18 13:30:00,
2013-10-18 09:40:00,83.4,-99.9,29.88,SSE,153,3.0,3.0,0,0.00,,,0.00,Wunderground v.1.15,2013-10-18 13:40:00,
2013-10-18 09:46:00,83.7,-99.9,29.88,SSE,153,0.0,-999.0,0,-99.99,,,0.00,weatherlink.com 1.10,2013-10-18 13:46:00,
2013-10-18 09:55:00,84.5,-99.9,29.88,SSE,153,0.0,2.0,0,0.00,,,0.00,Wunderground v.1.15,2013-10-18 13:55:00,
2013-10-18 10:00:00,84.5,-99.9,29.89,SSE,153,0.0,0.0,0,0.00,,,0.00,Wunderground v.1.15,2013-10-18 14:00:00,
2013-10-18 10:10:00,85.3,-99.9,29.89,SSE,153,0.0,0.0,0,0.00,,,0.00,Wunderground v.1.15,2013-10-18 14:10:00,
2013-10-18 10:16:00,85.6,-99.9,29.89,SSE,153,0.0,-999.0,0,-99.99,,,0.00,weatherlink.com 1.10,2013-10-18 14:16:00,
2013-10-18 10:25:00,86.0,-99.9,29.89,SSE,150,1.0,1.0,0,0.00,,,0.00,Wunderground v.1.15,2013-10-18 14:25:00,
2013-10-18 10:30:00,85.7,-99.9,29.89,ESE,109,2.0,8.0,0,0.00,,,0.00,Wunderground v.1.15,2013-10-18 14:30:00,
2013-10-18 10:40:00,84.9,-99.9,29.89,NE,50,5.0,5.0,0,0.00,,,0.00,Wunderground v.1.15,2013-10-18 14:40:00,
2013-10-18 10:45:00,84.4,-99.9,29.89,NE,39,5.0,5.0,0,0.00,,,0.00,Wunderground v.1.15,2013-10-18 14:45:00,
2013-10-18 10:50:00,84.2,-99.9,29.89,North,355,5.0,9.0,0,0.00,,,0.00,Wunderground v.1.15,2013-10-18 14:50:00,
2013-10-18 11:00:00,83.8,-99.9,29.89,NNW,339,8.0,8.0,0,0.00,,,0.00,Wunderground v.1.15,2013-10-18 15:00:00,
2013-10-18 11:06:00,83.7,-99.9,29.89,NNW,340,8.0,8.0,0,0.00,,,0.00,Wunderground v.1.15,2013-10-18 15:06:00,
2013-10-18 11:15:00,83.7,-99.9,29.88,NNW,344,7.0,7.0,0,0.00,,,0.00,Wunderground v.1.15,2013-10-18 15:15:00,
2013-10-18 11:20:00,83.6,-99.9,29.89,NNW,347,8.0,11.0,0,0.00,,,0.00,Wunderground v.1.15,2013-10-18 15:20:00,
2013-10-18 11:30:00,83.5,-99.9,29.88,North,350,8.0,8.0,0,0.00,,,0.00,Wunderground v.1.15,2013-10-18 15:30:00,
2013-10-18 11:35:00,83.5,-99.9,29.88,North,360,7.0,8.0,0,0.00,,,0.00,Wunderground v.1.15,2013-10-18 15:35:00,
2013-10-18 11:45:00,83.8,-99.9,29.88,North,5,5.0,7.0,0,0.00,,,0.00,Wunderground v.1.15,2013-10-18 15:45:00,
2013-10-18 11:55:00,84.0,-99.9,29.88,NNE,18,5.0,7.0,0,0.00,,,0.00,Wunderground v.1.15,2013-10-18 15:55:00,
2013-10-18 12:00:00,84.0,-99.9,29.87,NNE,19,5.0,7.0,0,0.00,,,0.00,Wunderground v.1.15,2013-10-18 16:00:00,
2013-10-18 12:05:00,84.1,-99.9,29.87,NNE,18,4.0,7.0,0,0.00,,,0.00,Wunderground v.1.15,2013-10-18 16:05:00,
2013-10-18 12:15:00,84.2,-99.9,29.87,NNE,15,5.0,5.0,0,0.00,,,0.00,Wunderground v.1.15,2013-10-18 16:15:00,
2013-10-18 12:20:00,84.3,-99.9,29.87,NNE,18,5.0,5.0,0,0.00,,,0.00,Wunderground v.1.15,2013-10-18 16:20:00,
2013-10-18 12:30:00,84.4,-99.9,29.86,North,11,5.0,7.0,0,0.00,,,0.00,Wunderground v.1.15,2013-10-18 16:30:00,
2013-10-18 12:35:00,84.3,-99.9,29.86,North,10,5.0,7.0,0,0.00,,,0.00,Wunderground v.1.15,2013-10-18 16:35:00,
2013-10-18 12:45:00,84.3,-99.9,29.85,NNE,22,5.0,8.0,0,0.00,,,0.00,Wunderground v.1.15,2013-10-18 16:45:00,
2013-10-18 12:55:00,84.5,-99.9,29.85,NNE,20,5.0,5.0,0,0.00,,,0.00,Wunderground v.1.15,2013-10-18 16:55:00,
2013-10-18 13:00:00,84.4,-99.9,29.84,NNE,18,6.0,6.0,0,0.00,,,0.00,Wunderground v.1.15,2013-10-18 17:00:00,
2013-10-18 13:05:00,84.4,-99.9,29.85,NNE,18,5.0,6.0,0,0.00,,,0.00,Wunderground v.1.15,2013-10-18 17:05:00,
2013-10-18 13:15:00,84.5,-99.9,29.84,NNE,22,4.0,5.0,0,0.00,,,0.00,Wunderground v.1.15,2013-10-18 17:15:00,
2013-10-18 13:20:00,84.6,-99.9,29.84,NNE,22,5.0,7.0,0,0.00,,,0.00,Wunderground v.1.15,2013-10-18 17:20:00,
2013-10-18 13:25:00,84.2,-99.9,29.84,NNE,30,5.0,7.0,0,0.00,,,0.00,Wunderground v.1.15,2013-10-18 17:25:00,
2013-10-18 13:35:00,84.4,-99.9,29.83,NNE,32,6.0,-999.0,0,-99.99,,,0.00,weatherlink.com 1.10,2013-10-18 17:35:00,
2013-10-18 13:40:00,84.7,-99.9,29.83,NE,36,4.0,4.0,0,0.00,,,0.00,Wunderground v.1.15,2013-10-18 17:40:00,
2013-10-18 13:45:00,84.7,-99.9,29.83,NNE,31,5.0,5.0,0,0.00,,,0.00,Wunderground v.1.15,2013-10-18 17:45:00,
2013-10-18 13:55:00,84.9,-99.9,29.83,NNE,31,5.0,7.0,0,0.00,,,0.00,Wunderground v.1.15,2013-10-18 17:55:00,
2013-10-18 14:00:00,85.1,-99.9,29.82,NNE,33,4.0,4.0,0,0.00,,,0.00,Wunderground v.1.15,2013-10-18 18:00:00,
2013-10-18 14:06:00,85.0,-99.9,29.82,NE,36,3.0,4.0,0,0.00,,,0.00,Wunderground v.1.15,2013-10-18 18:06:00,
2013-10-18 14:15:00,85.4,-99.9,29.82,NE,42,4.0,5.0,0,0.00,,,0.00,Wunderground v.1.15,2013-10-18 18:15:00,
2013-10-18 14:20:00,85.2,-99.9,29.82,NE,40,4.0,5.0,0,0.00,,,0.00,Wunderground v.1.15,2013-10-18 18:20:00,
2013-10-18 14:30:00,85.1,-99.9,29.81,NE,46,4.0,4.0,0,0.00,,,0.00,Wunderground v.1.15,2013-10-18 18:30:00,
2013-10-18 14:35:00,85.6,-99.9,29.81,NE,49,4.0,4.0,0,0.00,,,0.00,Wunderground v.1.15,2013-10-18 18:35:00,
2013-10-18 14:45:00,86.3,-99.9,29.82,NE,49,4.0,6.0,0,0.00,,,0.00,Wunderground v.1.15,2013-10-18 18:45:00,
2013-10-18 14:50:00,86.5,-99.9,29.81,NE,51,4.0,6.0,0,0.00,,,0.00,Wunderground v.1.15,2013-10-18 18:50:00,
2013-10-18 14:55:00,86.7,-99.9,29.81,NE,51,4.0,6.0,0,0.00,,,0.00,Wunderground v.1.15,2013-10-18 18:55:00,
2013-10-18 15:00:00,86.8,-99.9,29.81,NE,52,4.0,4.0,0,0.00,,,0.00,Wunderground v.1.15,2013-10-18 19:00:00,
2013-10-18 15:05:00,86.5,-99.9,29.81,ENE,57,0.0,-999.0,0,-99.99,,,0.00,weatherlink.com 1.10,2013-10-18 19:05:00,
2013-10-18 15:15:00,86.6,-99.9,29.81,ENE,57,2.0,3.0,0,0.00,,,0.00,Wunderground v.1.15,2013-10-18 19:15:00,
2013-10-18 15:25:00,86.2,-99.9,29.81,NE,56,1.0,1.0,0,0.00,,,0.00,Wunderground v.1.15,2013-10-18 19:25:00,
2013-10-18 15:30:00,86.6,-99.9,29.81,ENE,57,0.0,0.0,0,0.00,,,0.00,Wunderground v.1.15,2013-10-18 19:30:00,
2013-10-18 15:35:00,86.7,-99.9,29.81,ENE,57,0.0,0.0,0,0.00,,,0.00,Wunderground v.1.15,2013-10-18 19:35:00,
2013-10-18 15:45:00,86.3,-99.9,29.80,ENE,57,1.0,1.0,0,0.00,,,0.00,Wunderground v.1.15,2013-10-18 19:45:00,
2013-10-18 15:50:00,85.9,-99.9,29.80,ENE,57,3.0,5.0,0,0.00,,,0.00,Wunderground v.1.15,2013-10-18 19:50:00,
2013-10-18 16:00:00,86.1,-99.9,29.81,ENE,57,2.0,3.0,0,0.00,,,0.00,Wunderground v.1.15,2013-10-18 20:00:00,
2013-10-18 16:05:00,85.8,-99.9,29.81,ENE,57,2.0,3.0,0,0.00,,,0.00,Wunderground v.1.15,2013-10-18 20:05:00,
2013-10-18 16:15:00,85.9,-99.9,29.81,ENE,57,1.0,5.0,0,0.00,,,0.00,Wunderground v.1.15,2013-10-18 20:15:00,
2013-10-18 16:20:00,86.0,-99.9,29.81,ENE,58,1.0,1.0,0,0.00,,,0.00,Wunderground v.1.15,2013-10-18 20:20:00,
2013-10-18 16:30:00,85.4,-99.9,29.81,ENE,57,0.0,0.0,0,0.00,,,0.00,Wunderground v.1.15,2013-10-18 20:30:00,
2013-10-18 16:35:00,85.3,-99.9,29.80,ENE,57,0.0,0.0,0,0.00,,,0.00,Wunderground v.1.15,2013-10-18 20:35:00,
2013-10-18 16:40:00,85.5,-99.9,29.81,ENE,57,0.0,0.0,0,0.00,,,0.00,Wunderground v.1.15,2013-10-18 20:40:00,
2013-10-18 16:50:00,85.3,-99.9,29.81,ENE,57,0.0,0.0,0,0.00,,,0.00,Wunderground v.1.15,2013-10-18 20:50:00,
2013-10-18 16:55:00,85.7,-99.9,29.82,ENE,58,0.0,0.0,0,0.00,,,0.00,Wunderground v.1.15,2013-10-18 20:55:00,
2013-10-18 17:00:00,85.7,-99.9,29.82,ENE,57,0.0,0.0,0,0.00,,,0.00,Wunderground v.1.15,2013-10-18 21:00:00,
2013-10-18 17:06:00,85.3,-99.9,29.82,ENE,57,0.0,-999.0,0,-99.99,,,0.00,weatherlink.com 1.10,2013-10-18 21:06:00,
2013-10-18 17:15:00,84.7,-99.9,29.82,ENE,58,0.0,0.0,0,0.00,,,0.00,Wunderground v.1.15,2013-10-18 21:15:00,
2013-10-18 17:21:00,84.5,-99.9,29.83,ENE,57,0.0,-999.0,0,-99.99,,,0.00,weatherlink.com 1.10,2013-10-18 21:21:00,